CZ-6A DEB

Satellite information

Favourite Embed

Satellite Type and Status

DEBRISIN ORBIT

Key statistics

Satellite CZ-6A DEB at a glance.

Uptime

1073

Days in orbit

Revolutions

≈ 14.1

Per day

Orbit

SSO

Sun Synchronous Orbit

Inclination

98.8

Latest

Satellite identification and parameters

Extended collection of information and parameters for CZ-6A DEB.

Object identification

Identified? True

Debris? True

Object name: CZ-6A DEB

International designator: 2022-151AHN

Object number (NORAD): 56686

Object ID (CCSDS): 56686

Country: PEOPLES REPUBLIC OF CHINA (PRC)

Current information (Y/N): Y

RCS size: SMALL

Orbital parameters

Period: 102.148 minutes

Inclination: 98.8464 deg

SMA: 7238.453 km

Apoapsis: 892.493 km

Periapsis: 828.143 km

RAAN: 291.243 deg

Eccentricy: 0.00444499

Argument of periapsis: 306.8504 deg

Mean anomaly: 52.8594 deg

Mean motion: 14.09723992 rev/day

Mean motion (dot): 0.00000285 rev/day2

B* drag term: 0.00018587864 1/REarth

Two-line elements (TLE)

Creation date: Oct. 18, 2025, 2:17 a.m.

Reference frame: TEME

Reference center: EARTH

Epoch: Oct. 17, 2025, 5:48 p.m. UTC

TLE line 0: 0 CZ-6A DEB

TLE line 1: 1 56686U 22151AHN 25290.74182844 .00000285 00000-0 18588-3 0 9996

TLE line 2: 2 56686 98.8464 291.2430 0044450 306.8504 52.8594 14.09723992125935

Live tracking on map

Real-time ground track for satellite CZ-6A DEB.

In-orbit conjunctions

A list of the most updated potential collisions computed for object CZ-6A DEB.

Target Orbit TCA Probability of collision Miss distance Type
METEOR 1-17 DEB LEO 2024-11-14 11:37:47 0.0006684551 168.0 (m) DEBRIS
THORAD AGENA D DEB LEO 2024-11-10 13:30:19 0.0009743989 402.0 (m) DEBRIS

Associated space launch

Chinese satellite reported for atmospheric/ocean/environmental/spatial parameter research purposes, details TBD.

CZ-6A DEB was lifted into orbit during the mission ‘Long March 6A | Yunhai 3’, on board a Long March 6A space rocket.

The launch took place on Nov. 11, 2022, 10:52 p.m. from Launch Complex 9A.

For more information about the launch, click the button.

Launch to space Long March 6A | Yunhai 3
Long March 6A | Yunhai 3

Agency: N/A

Status: Launch Successful

Launch date: Nov. 11, 2022, 10:52 p.m. UTC

Rocket: Long March 6A

Launch pad: Launch Complex 9A

Location: Taiyuan Satellite Launch Center, People's Republic of China

...

Latest news about this satellite

There are no fresh news available about this satellite. Check back as we update our databases every day.


Newsletter sign-up

Weekly statistics, charts and insights to help you stay on top of the space industry.